Flag for Colombia Weather past 2 weeks in Barranquilla, Colombia

Now
100 °F

Passing clouds.


Feels Like: 114 °F
Forecast: 82 / 93 °F
Wind: 7 mph from Southeast

Location: Barranquilla / Ernestocortissoz

Current Time: Aug 29, 2015 at 12:49:37 PM

Latest Report: Aug 29, 2015 at 12:00 PM


Visibility: N/A

Pressure: 29.80 "Hg

Humidity: 45%

Dew point: 75 °F

Location of BarranquillaLocation

Historic Weather in Barranquilla — Graph

°F

Barranquilla temperature yesterday

Maximum temperature yesterday: 97 °F (at 12:00 PM)
Minimum temperature yesterday: 81 °F (at 4:00 AM)
Average temperature yesterday: 87 °F

Past Weeks' High & Low Weather Summary

 TemperatureHumidityPressure
High97 °F (Aug 28, 12:00 PM)100% (Aug 15, 1:00 AM)29.93 "Hg (Aug 15, 1:00 AM)
Low77 °F (Aug 16, 5:00 PM)53% (Aug 28, 12:00 PM)29.72 "Hg (Aug 20, 5:00 PM)
Average84 °F82%29.82 "Hg
* Reported Aug 14 11:00 AM — Aug 29 11:00 AM, Barranquilla, Weather by CustomWeather, © 2015

Note: Actual official high and low records may vary slightly from our data, if they occured in-between our weather recording intervals... More about our weather records

Advertising

Barranquilla weather history for previous 24 hours

 ConditionsComfort  
Time TempWeatherWind HumidityBarometerVisibility
11:00 AM
Sat, Aug 29
97 °FPassing clouds.9 mph56%29.82 "HgN/A
10:00 AM95 °FPassing clouds.7 mph56%29.83 "HgN/A
9:00 AM91 °FSunny.3 mph67%29.82 "Hg10 mi
8:00 AM88 °FPassing clouds.5 mph75%29.81 "HgN/A
7:00 AM82 °FPassing clouds.3 mph89%29.80 "HgN/A
6:00 AM82 °FScattered clouds.6 mph94%29.79 "HgN/A
5:00 AM82 °FPassing clouds.6 mph89%29.78 "HgN/A
4:00 AM81 °FPassing clouds.7 mph94%29.77 "HgN/A
2:00 AM82 °FPassing clouds.6 mph89%29.80 "HgN/A
1:00 AM82 °FPassing clouds.8 mph89%29.80 "HgN/A
12:00 AM82 °FPassing clouds.7 mph84%29.80 "HgN/A
11:00 PM
Fri, Aug 28
82 °FPassing clouds.9 mph84%29.81 "HgN/A
10:00 PM84 °FPassing clouds.5 mph84%29.86 "HgN/A
9:00 PM84 °FPassing clouds.8 mph84%29.80 "HgN/A
8:00 PM84 °FPassing clouds.8 mph84%29.80 "HgN/A
7:00 PM84 °FPassing clouds.12 mph84%29.78 "HgN/A
6:00 PM86 °FScattered clouds.17 mph75%29.75 "HgN/A
5:00 PM90 °FPassing clouds.17 mph67%29.73 "HgN/A
4:00 PM91 °FPassing clouds.17 mph59%29.72 "HgN/A
3:00 PM93 °FPassing clouds.21 mph59%29.73 "HgN/A
2:00 PM95 °FPassing clouds.18 mph60%29.75 "HgN/A
1:00 PM97 °FScattered clouds.18 mph60%29.76 "HgN/A
12:00 PM97 °FScattered clouds.3 mph53%29.80 "HgN/A
Weather by CustomWeather, © 2015

See weather overviewHow to use our weather pages